Temp
53 53 52 52 53 52 52 52 52 52 50 50 51 51 51 50 49 49 48 48 50 51 52 52 52 52 52 52 52 52 53 54 54 54 55 54 53 52 52 52 53 53 53 52 51 50 49 48 48 48 48 48 47 46 46 46 47 47 48 48 47 46 45 45 45 44 43 43 43
52 52 53 53 53 52 52 52 52 52 51 50 51 50 49 47 47 48 49 49 50 51 52 52 52 52 52 52 52 52 53 54 54 54 54 53 52 51 51 51 52 52 51 50 49 48 48 47 47 48 48 47 47 46 46 46 47 47 47 45 45 46 46 45 43 42 42 42 42
52 52 52 53 52 52 52 51 52 51 51 51 50 49 47 46 47 48 49 50 51 51 52 52 52 51 51 51 52 52 53 53 53 53 53 53 52 50 50 50 50 50 50 48 47 47 46 46 48 49 49 48 47 46 46 46 47 47 46 44 45 46 47 47 44 43 42 42 41
52 52 52 52 51 51 51 51 51 51 51 50 49 48 48 47 48 49 50 51 51 52 52 52 51 51 51 51 51 52 53 53 53 52 52 51 50 49 49 49 49 48 47 46 45 45 45 45 47 48 47 45 45 45 46 46 46 46 46 45 45 46 46 46 45 44 43 42 41
52 52 52 51 50 51 51 52 51 51 50 49 48 48 48 48 49 50 51 51 52 51 51 50 50 50 50 50 51 51 52 53 53 52 50 49 48 48 48 48 47 47 46 46 46 46 46 46 47 47 46 45 47 46 45 45 45 45 45 46 46 46 45 45 44 44 43 42 40
52 52 51 50 50 51 51 52 51 51 50 48 48 48 48 49 50 50 51 51 51 50 50 49 49 49 50 50 50 51 52 52 52 51 49 48 48 48 48 49 48 47 47 47 47 47 47 47 48 47 46 47 45 45 44 45 46 46 46 45 45 44 43 42 43 43 42 41 40
52 51 51 50 51 51 52 52 51 50 49 48 47 47 48 49 50 50 51 51 50 50 50 50 48 48 49 49 50 50 51 51 51 50 49 47 47 48 49 49 48 48 48 47 47 47 48 47 49 49 49 49 47 45 44 45 46 46 46 44 43 43 42 41 42 42 41 39 39
52 51 51 51 51 51 51 51 50 50 49 49 47 47 47 49 50 50 51 51 50 50 49 48 46 46 47 48 49 49 49 50 50 49 48 46 46 47 48 49 49 48 48 47 47 48 48 48 48 48 47 48 47 46 44 44 45 45 45 43 42 42 41 41 40 40 40 39 39
52 51 51 52 52 51 51 50 49 49 48 47 46 46 47 49 50 50 51 51 50 49 47 46 45 45 45 46 47 48 48 48 48 48 48 46 46 47 48 49 48 48 48 48 48 47 47 48 47 47 46 47 47 45 44 45 45 45 44 43 42 41 40 39 38 38 38 39 38
51 51 51 52 51 51 50 49 49 48 47 46 45 46 48 50 51 51 51 50 49 47 45 44 44 44 45 45 46 47 47 47 47 47 47 46 46 47 47 48 48 48 48 49 48 47 47 48 47 46 46 46 45 44 44 45 45 45 44 44 42 40 38 37 37 37 38 38 38
51 51 52 52 51 51 50 49 49 48 46 45 45 47 49 51 51 51 50 49 47 45 43 43 44 44 45 45 45 46 46 46 46 46 46 46 46 46 46 46 46 46 46 47 47 48 48 49 48 47 46 45 45 44 44 44 45 44 43 41 40 39 38 37 37 37 37 37 37
51 52 52 52 51 50 50 49 49 47 46 45 46 48 49 50 50 49 48 46 45 43 43 43 44 45 45 45 45 45 46 45 45 46 46 46 45 45 45 45 45 45 45 45 47 48 50 50 49 47 46 45 45 45 45 44 44 43 41 39 39 38 37 37 36 36 37 37 38
52 52 52 52 51 50 49 49 48 47 46 45 47 48 49 50 49 48 47 45 44 43 42 43 44 44 45 45 44 44 44 45 45 45 46 45 45 45 45 45 45 45 45 45 47 48 50 49 48 46 45 44 45 45 44 44 44 43 41 39 39 38 37 36 36 36 36 37 38
52 52 52 51 50 50 49 49 48 47 46 46 47 48 49 49 49 48 46 44 44 43 42 43 44 44 44 44 43 43 43 44 44 45 45 45 45 45 45 46 46 46 46 47 47 48 49 48 47 46 45 43 43 43 44 44 44 43 41 40 39 37 36 35 35 36 36 37 37
52 52 52 51 50 50 49 48 48 47 46 46 47 48 49 49 49 48 46 44 43 43 43 43 44 44 44 43 43 43 43 43 44 44 44 44 44 45 45 45 45 46 47 47 47 47 47 47 46 46 45 44 43 43 43 43 43 42 41 40 39 37 36 35 35 36 36 37 36
52 52 51 50 50 49 49 48 48 47 46 46 47 48 48 49 48 47 46 44 43 43 43 43 43 43 43 43 43 43 43 43 43 43 43 43 43 44 44 44 45 45 46 46 46 46 46 46 46 46 45 44 43 42 42 42 42 40 39 38 37 36 35 35 35 35 36 37 36
52 52 51 50 50 49 49 48 47 47 46 46 47 48 48 48 47 47 46 45 44 44 43 43 43 43 43 43 43 43 43 43 43 43 43 43 43 43 43 43 44 44 45 45 45 45 44 44 45 45 45 44 43 42 42 41 40 39 37 36 35 35 35 36 35 35 35 36 36
52 52 51 50 49 49 48 47 47 46 46 46 47 47 48 47 47 46 46 45 44 44 44 44 43 43 43 43 43 43 44 43 43 43 43 42 42 42 43 43 43 44 44 44 44 44 43 43 43 44 44 43 42 41 40 40 38 37 35 34 34 33 34 34 34 34 35 36 35
52 52 51 50 50 49 48 47 46 46 46 46 47 47 47 46 46 46 45 44 44 44 44 44 44 43 43 42 43 44 44 43 43 42 42 42 42 42 42 42 42 43 43 43 43 43 42 42 42 42 42 41 40 39 38 38 36 35 34 33 33 32 32 32 32 33 33 34 33
52 52 52 51 50 50 49 48 46 46 46 46 47 47 46 46 46 45 45 44 45 45 45 45 45 44 43 42 42 43 43 43 43 42 41 41 42 42 42 42 42 42 42 43 42 42 41 41 41 41 41 40 39 38 37 36 36 35 34 33 32 32 32 32 32 32 32 32 32
52 52 52 52 51 50 49 48 47 46 46 46 46 46 46 46 45 45 44 44 45 45 46 45 45 44 43 42 42 42 42 42 42 42 42 42 42 42 42 42 42 42 42 42 42 41 41 41 40 40 40 40 39 38 37 37 36 35 34 34 32 32 31 31 31 31 31 31 31
53 53 53 53 52 51 50 48 47 46 46 46 46 46 46 46 45 45 44 44 45 46 46 46 45 44 43 42 42 42 41 42 41 41 42 42 42 42 43 43 43 42 42 42 41 41 41 41 40 40 40 40 39 39 38 38 36 35 34 33 32 32 32 31 31 31 31 31 31
53 53 53 53 53 52 51 49 47 47 46 46 46 46 46 46 45 45 44 44 46 46 45 45 44 43 43 42 42 42 41 41 40 40 41 41 41 41 42 43 43 43 42 42 42 41 41 40 40 40 40 40 39 38 38 38 37 36 35 34 33 32 32 32 32 32 32 32 32
53 53 53 54 53 52 51 50 48 47 46 46 46 46 46 46 45 44 44 45 46 45 45 46 45 43 42 42 42 41 41 41 40 40 40 40 41 41 41 43 43 42 42 43 44 44 43 42 41 40 40 40 39 38 38 38 37 37 36 35 34 33 33 33 33 33 33 33 33
53 53 53 54 53 52 51 50 48 47 46 46 46 46 46 45 45 45 44 44 45 45 45 45 44 43 42 41 41 42 42 42 41 41 40 40 40 41 42 43 42 43 44 46 49 49 49 47 45 43 41 40 39 38 38 37 37 37 37 37 36 35 34 34 34 34 34 34 35
53 53 53 53 52 52 51 50 49 48 47 46 46 46 45 45 45 45 44 44 44 44 44 44 43 43 43 41 41 42 42 43 43 42 41 41 40 40 41 43 43 43 46 50 52 53 52 51 49 46 43 41 40 39 38 36 36 36 37 37 37 37 37 36 35 35 35 34 35
52 52 52 53 52 52 51 51 50 49 48 46 46 46 45 45 46 45 44 44 44 44 44 44 44 44 44 42 42 42 42 43 43 42 42 42 41 41 41 42 42 44 48 53 54 54 54 53 51 48 45 41 40 40 39 38 36 36 37 37 37 38 37 36 36 36 36 35 34
52 52 52 52 52 51 51 51 51 50 49 47 46 46 46 46 45 45 44 44 44 44 44 44 44 45 45 43 42 42 42 42 42 43 43 42 42 42 41 42 41 45 51 56 56 55 55 54 52 50 48 43 40 39 38 38 37 37 37 37 37 36 35 35 35 35 35 35 35
52 52 52 52 51 51 51 51 51 50 49 47 46 46 46 45 45 45 45 44 44 44 45 45 45 45 44 43 42 41 41 41 42 43 42 42 42 41 41 41 43 48 54 57 56 56 55 55 54 52 50 47 43 41 40 39 38 38 37 37 36 35 34 33 33 33 33 34 35
52 52 51 52 51 51 51 51 51 50 50 48 47 46 46 45 45 45 45 44 44 45 45 45 44 43 42 42 42 42 42 41 42 43 42 42 41 41 42 43 44 49 55 58 57 56 56 55 55 53 51 49 44 41 39 39 37 37 37 36 34 33 33 32 32 33 33 34 35
52 52 51 51 51 51 51 51 51 51 50 49 47 46 46 45 45 45 45 45 45 46 46 44 42 41 41 41 41 41 41 41 42 42 43 43 44 43 42 42 44 50 55 58 57 57 56 56 55 54 52 50 45 41 38 38 37 37 36 35 33 32 32 32 33 34 34 35 36
52 52 51 51 51 51 51 52 51 51 50 49 48 46 46 45 45 45 45 46 46 46 44 42 41 41 40 40 40 41 41 42 42 43 43 44 43 42 41 42 44 50 56 58 58 57 57 56 55 54 53 51 46 41 37 37 36 36 35 33 33 33 33 34 34 34 35 36 36
52 52 51 51 51 51 51 52 51 51 50 49 49 48 46 46 45 45 46 46 46 45 43 42 42 41 41 41 40 40 41 42 43 44 45 44 43 42 42 43 45 51 57 58 58 57 57 56 55 54 53 51 45 40 37 37 36 35 34 32 32 33 33 34 34 34 35 35 35
52 52 51 51 51 51 51 51 51 51 50 50 49 49 48 46 45 45 46 47 46 45 43 43 42 42 42 42 42 42 42 44 44 43 43 43 43 43 43 43 46 52 58 58 58 58 57 56 56 55 53 50 44 39 37 37 36 35 34 33 32 33 33 33 34 34 34 34 35
52 52 51 51 51 51 51 51 51 50 50 50 49 49 48 47 46 46 46 47 47 45 43 42 41 41 41 41 42 42 43 44 42 42 42 42 43 43 44 43 45 52 58 59 58 58 57 57 56 54 52 48 42 39 37 37 36 35 34 33 33 33 33 33 33 33 34 34 35
52 52 51 51 51 51 51 51 51 50 50 50 50 49 49 48 47 47 47 49 47 45 43 42 41 41 41 41 41 43 44 43 42 41 42 43 43 44 44 43 45 52 58 59 58 58 57 57 55 54 50 45 40 38 38 38 37 35 34 34 34 33 33 33 33 33 33 34 35
52 52 52 51 51 51 51 51 51 50 50 50 50 50 49 49 48 48 48 49 46 44 43 42 42 42 42 42 42 42 43 43 42 42 43 45 45 44 44 44 45 51 57 59 58 58 57 56 55 52 48 42 39 38 38 38 37 36 35 35 33 33 32 32 33 33 34 35 36
53 52 52 51 51 51 51 51 51 51 50 50 50 50 50 50 49 48 48 49 46 44 43 43 42 42 42 43 43 42 42 43 44 44 44 45 45 45 45 44 44 49 55 58 58 58 57 56 54 51 47 41 39 39 39 38 37 36 36 35 33 32 32 31 32 33 35 38 42
53 53 52 52 52 51 51 51 51 51 51 51 50 50 50 50 50 49 49 49 46 45 44 43 42 42 43 43 43 42 41 42 44 45 45 45 45 47 47 45 45 48 54 58 58 58 57 56 54 51 48 43 40 40 40 39 38 36 36 35 34 33 32 31 32 34 36 40 48
53 53 53 53 52 52 51 51 51 51 51 51 51 50 50 51 51 51 50 49 47 45 44 44 43 43 44 46 44 42 41 41 43 45 46 45 47 50 50 47 45 48 53 58 58 57 57 56 54 52 49 44 41 41 41 40 38 37 36 35 35 34 33 32 32 34 36 39 46
53 53 53 53 52 52 51 52 52 52 52 52 51 51 51 52 52 51 51 49 47 46 45 44 43 43 45 47 45 43 41 41 42 44 46 47 49 51 52 47 46 48 52 56 57 57 57 56 54 52 49 45 42 41 41 41 39 38 36 35 36 36 35 33 33 34 35 35 39
MSLP
1016.40 1016.56 1016.68 1016.84 1016.88 1017.00 1017.16 1017.32 1017.52 1017.72 1017.88 1017.96 1018.08 1018.24 1018.36 1018.48 1018.64 1018.76 1018.88 1018.88 1019.00 1019.04 1019.12 1019.16 1019.28 1019.40 1019.48 1019.56 1019.60 1019.60 1019.68 1019.72 1019.84 1019.92 1020.00 1020.12 1020.24 1020.36 1020.44 1020.56 1020.64 1020.72 1020.88 1020.96 1021.04 1021.16 1021.20 1021.28 1021.36 1021.44 1021.60 1021.64 1021.72 1021.84 1021.92 1022.00 1022.00 1022.04 1022.16 1022.32 1022.44 1022.56 1022.68 1022.84 1022.96 1023.04 1023.12 1023.24 1023.32
1016.40 1016.56 1016.68 1016.80 1016.88 1017.00 1017.16 1017.36 1017.56 1017.72 1017.88 1018.00 1018.12 1018.28 1018.44 1018.60 1018.72 1018.84 1018.88 1018.96 1019.04 1019.08 1019.16 1019.28 1019.40 1019.48 1019.60 1019.64 1019.68 1019.72 1019.72 1019.84 1019.92 1020.00 1020.12 1020.24 1020.36 1020.44 1020.56 1020.64 1020.72 1020.84 1020.96 1021.04 1021.16 1021.24 1021.32 1021.44 1021.48 1021.60 1021.72 1021.80 1021.88 1022.00 1022.08 1022.12 1022.12 1022.20 1022.36 1022.52 1022.60 1022.68 1022.80 1022.92 1023.12 1023.16 1023.20 1023.32 1023.40
1016.40 1016.52 1016.64 1016.76 1016.88 1017.00 1017.16 1017.32 1017.52 1017.72 1017.88 1018.04 1018.20 1018.36 1018.56 1018.68 1018.80 1018.88 1018.92 1019.00 1019.12 1019.16 1019.24 1019.36 1019.52 1019.60 1019.72 1019.72 1019.72 1019.76 1019.84 1019.88 1020.00 1020.12 1020.24 1020.36 1020.48 1020.60 1020.68 1020.76 1020.88 1020.96 1021.04 1021.16 1021.28 1021.40 1021.48 1021.56 1021.60 1021.72 1021.84 1021.96 1022.04 1022.16 1022.24 1022.28 1022.28 1022.32 1022.48 1022.68 1022.72 1022.76 1022.88 1023.04 1023.20 1023.28 1023.28 1023.36 1023.44
1016.44 1016.52 1016.64 1016.72 1016.88 1016.96 1017.04 1017.24 1017.44 1017.64 1017.84 1018.04 1018.28 1018.44 1018.60 1018.72 1018.84 1018.88 1018.96 1019.04 1019.16 1019.20 1019.32 1019.44 1019.60 1019.72 1019.76 1019.84 1019.88 1019.88 1019.92 1019.96 1020.08 1020.20 1020.32 1020.44 1020.60 1020.72 1020.80 1020.88 1021.00 1021.12 1021.20 1021.32 1021.40 1021.48 1021.60 1021.68 1021.76 1021.88 1022.00 1022.08 1022.16 1022.28 1022.36 1022.40 1022.44 1022.48 1022.64 1022.76 1022.88 1022.92 1023.04 1023.16 1023.24 1023.32 1023.32 1023.44 1023.52
1016.44 1016.52 1016.60 1016.72 1016.84 1016.96 1017.04 1017.20 1017.40 1017.60 1017.80 1018.04 1018.28 1018.48 1018.64 1018.80 1018.88 1018.92 1019.00 1019.08 1019.16 1019.28 1019.44 1019.60 1019.72 1019.84 1019.88 1019.88 1019.92 1020.00 1020.00 1020.12 1020.16 1020.32 1020.48 1020.60 1020.72 1020.88 1020.96 1021.04 1021.16 1021.28 1021.32 1021.44 1021.52 1021.60 1021.72 1021.84 1021.92 1022.08 1022.16 1022.28 1022.32 1022.44 1022.52 1022.56 1022.56 1022.68 1022.84 1022.96 1023.00 1023.04 1023.16 1023.32 1023.32 1023.36 1023.44 1023.56 1023.64
1016.44 1016.52 1016.64 1016.76 1016.88 1017.00 1017.12 1017.28 1017.44 1017.60 1017.80 1018.04 1018.28 1018.44 1018.60 1018.76 1018.88 1018.92 1019.00 1019.12 1019.24 1019.40 1019.52 1019.68 1019.80 1019.92 1020.00 1020.00 1020.00 1020.08 1020.16 1020.24 1020.32 1020.44 1020.60 1020.72 1020.88 1021.00 1021.08 1021.20 1021.32 1021.36 1021.44 1021.56 1021.60 1021.72 1021.80 1021.88 1022.00 1022.16 1022.32 1022.40 1022.52 1022.60 1022.64 1022.60 1022.68 1022.80 1023.00 1023.16 1023.20 1023.24 1023.32 1023.40 1023.44 1023.48 1023.56 1023.68 1023.80
1016.44 1016.56 1016.68 1016.80 1016.88 1017.00 1017.16 1017.32 1017.48 1017.68 1017.88 1018.04 1018.24 1018.44 1018.60 1018.72 1018.84 1018.92 1019.00 1019.16 1019.32 1019.44 1019.60 1019.72 1019.88 1020.00 1020.04 1020.12 1020.16 1020.16 1020.28 1020.36 1020.48 1020.60 1020.68 1020.84 1020.96 1021.08 1021.16 1021.32 1021.44 1021.52 1021.60 1021.68 1021.72 1021.80 1021.88 1021.96 1022.08 1022.24 1022.40 1022.48 1022.60 1022.72 1022.72 1022.72 1022.72 1022.88 1023.12 1023.32 1023.44 1023.44 1023.48 1023.60 1023.60 1023.60 1023.72 1023.84 1023.96
1016.48 1016.60 1016.72 1016.84 1016.92 1017.00 1017.16 1017.32 1017.48 1017.68 1017.88 1018.08 1018.24 1018.40 1018.56 1018.72 1018.80 1018.92 1019.00 1019.16 1019.32 1019.48 1019.64 1019.80 1019.96 1020.08 1020.12 1020.16 1020.20 1020.28 1020.40 1020.48 1020.60 1020.72 1020.84 1020.96 1021.08 1021.16 1021.28 1021.40 1021.56 1021.68 1021.76 1021.80 1021.84 1021.88 1022.00 1022.04 1022.16 1022.32 1022.44 1022.56 1022.72 1022.76 1022.80 1022.84 1022.88 1023.00 1023.28 1023.48 1023.60 1023.68 1023.72 1023.72 1023.80 1023.84 1023.88 1024.00 1024.12
1016.56 1016.72 1016.80 1016.88 1016.96 1017.04 1017.16 1017.32 1017.48 1017.64 1017.84 1018.08 1018.28 1018.44 1018.56 1018.68 1018.76 1018.92 1019.04 1019.24 1019.40 1019.60 1019.72 1019.88 1020.04 1020.16 1020.20 1020.24 1020.28 1020.40 1020.48 1020.60 1020.72 1020.84 1020.92 1021.04 1021.16 1021.28 1021.40 1021.52 1021.68 1021.80 1021.88 1021.92 1022.00 1022.04 1022.12 1022.20 1022.32 1022.48 1022.60 1022.64 1022.76 1022.88 1022.92 1022.92 1023.04 1023.24 1023.44 1023.64 1023.80 1023.88 1023.92 1024.00 1024.00 1024.04 1024.04 1024.08 1024.20
1016.60 1016.72 1016.84 1016.92 1017.00 1017.08 1017.24 1017.40 1017.56 1017.72 1017.88 1018.08 1018.28 1018.44 1018.56 1018.68 1018.80 1018.92 1019.04 1019.24 1019.44 1019.64 1019.88 1020.00 1020.12 1020.20 1020.28 1020.36 1020.44 1020.48 1020.56 1020.68 1020.76 1020.88 1021.00 1021.16 1021.24 1021.36 1021.48 1021.60 1021.80 1021.92 1022.00 1022.08 1022.12 1022.16 1022.28 1022.40 1022.56 1022.68 1022.72 1022.84 1022.92 1023.00 1023.08 1023.12 1023.20 1023.40 1023.60 1023.76 1023.92 1024.04 1024.12 1024.16 1024.16 1024.16 1024.20 1024.24 1024.32
1016.64 1016.76 1016.84 1016.88 1017.00 1017.12 1017.24 1017.44 1017.60 1017.76 1017.92 1018.16 1018.32 1018.44 1018.56 1018.68 1018.80 1018.96 1019.12 1019.32 1019.52 1019.72 1019.88 1020.00 1020.12 1020.20 1020.32 1020.44 1020.52 1020.60 1020.64 1020.76 1020.84 1020.96 1021.12 1021.24 1021.32 1021.48 1021.60 1021.72 1021.88 1022.00 1022.16 1022.24 1022.28 1022.32 1022.40 1022.56 1022.72 1022.88 1022.96 1023.00 1023.08 1023.16 1023.24 1023.32 1023.40 1023.56 1023.76 1023.96 1024.00 1024.16 1024.24 1024.32 1024.32 1024.32 1024.36 1024.40 1024.44
1016.72 1016.84 1016.88 1016.88 1017.00 1017.12 1017.24 1017.44 1017.60 1017.80 1018.00 1018.16 1018.28 1018.44 1018.56 1018.68 1018.84 1019.00 1019.16 1019.40 1019.60 1019.80 1019.92 1020.04 1020.12 1020.20 1020.32 1020.44 1020.60 1020.68 1020.76 1020.88 1020.92 1021.00 1021.16 1021.32 1021.48 1021.60 1021.72 1021.88 1022.00 1022.12 1022.24 1022.36 1022.40 1022.44 1022.52 1022.68 1022.84 1023.00 1023.16 1023.24 1023.28 1023.32 1023.44 1023.48 1023.60 1023.72 1023.92 1024.08 1024.16 1024.24 1024.36 1024.48 1024.52 1024.56 1024.56 1024.56 1024.60
1016.72 1016.88 1016.92 1017.00 1017.04 1017.16 1017.28 1017.44 1017.60 1017.76 1018.00 1018.16 1018.28 1018.40 1018.52 1018.72 1018.88 1019.04 1019.24 1019.44 1019.64 1019.84 1020.00 1020.08 1020.16 1020.24 1020.36 1020.52 1020.68 1020.76 1020.84 1020.96 1021.00 1021.12 1021.24 1021.40 1021.56 1021.72 1021.88 1022.00 1022.08 1022.24 1022.36 1022.44 1022.44 1022.52 1022.64 1022.80 1022.92 1023.08 1023.24 1023.40 1023.48 1023.56 1023.60 1023.60 1023.68 1023.88 1024.08 1024.24 1024.32 1024.44 1024.60 1024.72 1024.76 1024.76 1024.76 1024.76 1024.88
1016.72 1016.88 1016.96 1017.04 1017.08 1017.16 1017.32 1017.44 1017.60 1017.80 1018.00 1018.16 1018.24 1018.40 1018.52 1018.72 1018.88 1019.08 1019.28 1019.44 1019.64 1019.84 1020.00 1020.16 1020.24 1020.28 1020.44 1020.56 1020.68 1020.80 1020.88 1021.00 1021.12 1021.20 1021.32 1021.48 1021.60 1021.76 1021.92 1022.08 1022.20 1022.32 1022.44 1022.56 1022.60 1022.64 1022.76 1022.96 1023.08 1023.20 1023.36 1023.56 1023.68 1023.72 1023.76 1023.76 1023.84 1024.00 1024.16 1024.36 1024.56 1024.72 1024.84 1024.92 1025.00 1025.00 1025.00 1025.04 1025.20
1016.72 1016.84 1016.96 1017.04 1017.12 1017.20 1017.32 1017.44 1017.64 1017.80 1017.96 1018.12 1018.24 1018.36 1018.56 1018.72 1018.92 1019.12 1019.32 1019.48 1019.68 1019.84 1020.00 1020.16 1020.28 1020.40 1020.52 1020.60 1020.72 1020.84 1020.96 1021.04 1021.16 1021.32 1021.44 1021.60 1021.72 1021.88 1022.00 1022.16 1022.28 1022.40 1022.52 1022.64 1022.72 1022.80 1022.88 1023.04 1023.16 1023.28 1023.44 1023.64 1023.80 1023.88 1023.92 1024.00 1024.08 1024.16 1024.32 1024.48 1024.64 1024.84 1025.00 1025.12 1025.16 1025.16 1025.16 1025.28 1025.44
1016.64 1016.84 1017.00 1017.12 1017.16 1017.20 1017.32 1017.48 1017.60 1017.76 1017.96 1018.04 1018.20 1018.36 1018.56 1018.72 1018.96 1019.16 1019.32 1019.52 1019.72 1019.88 1020.00 1020.16 1020.32 1020.52 1020.64 1020.72 1020.80 1020.88 1021.00 1021.16 1021.24 1021.40 1021.56 1021.72 1021.88 1022.00 1022.16 1022.28 1022.40 1022.52 1022.64 1022.76 1022.92 1023.04 1023.12 1023.16 1023.28 1023.36 1023.48 1023.68 1023.88 1024.00 1024.12 1024.20 1024.32 1024.44 1024.60 1024.72 1024.84 1024.96 1025.12 1025.24 1025.32 1025.32 1025.36 1025.40 1025.56
1016.60 1016.76 1016.96 1017.08 1017.16 1017.24 1017.36 1017.48 1017.64 1017.76 1017.92 1018.04 1018.16 1018.32 1018.52 1018.72 1018.96 1019.16 1019.32 1019.48 1019.68 1019.88 1020.04 1020.20 1020.32 1020.48 1020.68 1020.80 1020.88 1020.96 1021.04 1021.20 1021.32 1021.44 1021.60 1021.76 1021.92 1022.04 1022.20 1022.32 1022.44 1022.60 1022.72 1022.88 1023.04 1023.24 1023.32 1023.40 1023.44 1023.48 1023.60 1023.72 1023.92 1024.12 1024.28 1024.36 1024.56 1024.72 1024.88 1024.96 1025.04 1025.16 1025.28 1025.32 1025.44 1025.48 1025.48 1025.52 1025.68
1016.52 1016.72 1016.92 1017.04 1017.16 1017.28 1017.40 1017.52 1017.68 1017.80 1017.92 1018.04 1018.16 1018.32 1018.52 1018.72 1018.96 1019.16 1019.32 1019.48 1019.60 1019.80 1020.00 1020.24 1020.36 1020.48 1020.64 1020.80 1020.92 1021.00 1021.08 1021.24 1021.40 1021.52 1021.64 1021.80 1021.96 1022.08 1022.28 1022.44 1022.56 1022.64 1022.76 1022.92 1023.12 1023.32 1023.44 1023.60 1023.64 1023.72 1023.80 1023.92 1024.12 1024.28 1024.44 1024.60 1024.72 1024.88 1025.04 1025.16 1025.28 1025.36 1025.44 1025.52 1025.56 1025.60 1025.60 1025.68 1025.84
1016.44 1016.64 1016.88 1017.00 1017.16 1017.32 1017.44 1017.60 1017.72 1017.84 1017.92 1018.04 1018.16 1018.32 1018.52 1018.72 1018.92 1019.16 1019.36 1019.52 1019.64 1019.76 1019.96 1020.20 1020.40 1020.52 1020.64 1020.80 1020.92 1021.00 1021.12 1021.20 1021.40 1021.60 1021.72 1021.88 1022.00 1022.16 1022.28 1022.44 1022.60 1022.72 1022.88 1023.00 1023.16 1023.36 1023.52 1023.64 1023.72 1023.88 1024.00 1024.16 1024.32 1024.48 1024.64 1024.80 1024.96 1025.08 1025.20 1025.32 1025.44 1025.52 1025.60 1025.68 1025.72 1025.72 1025.72 1025.84 1025.96
1016.28 1016.56 1016.72 1016.92 1017.12 1017.32 1017.48 1017.60 1017.76 1017.88 1018.00 1018.08 1018.20 1018.36 1018.60 1018.76 1018.96 1019.16 1019.32 1019.52 1019.64 1019.76 1019.88 1020.12 1020.36 1020.60 1020.72 1020.84 1020.96 1021.08 1021.20 1021.32 1021.44 1021.60 1021.76 1021.88 1022.04 1022.20 1022.32 1022.48 1022.68 1022.84 1023.00 1023.16 1023.28 1023.44 1023.60 1023.76 1023.88 1023.96 1024.12 1024.28 1024.48 1024.68 1024.88 1025.00 1025.12 1025.24 1025.36 1025.44 1025.60 1025.68 1025.72 1025.80 1025.88 1025.88 1025.92 1025.96 1026.04
1016.20 1016.44 1016.64 1016.84 1017.04 1017.28 1017.44 1017.64 1017.80 1017.88 1018.00 1018.12 1018.24 1018.40 1018.60 1018.80 1019.00 1019.16 1019.32 1019.44 1019.60 1019.76 1019.92 1020.12 1020.32 1020.56 1020.72 1020.88 1021.00 1021.16 1021.28 1021.40 1021.52 1021.68 1021.84 1021.92 1022.08 1022.24 1022.40 1022.52 1022.72 1022.88 1023.08 1023.24 1023.36 1023.52 1023.68 1023.84 1023.96 1024.08 1024.20 1024.40 1024.60 1024.76 1024.92 1025.08 1025.24 1025.40 1025.52 1025.64 1025.76 1025.88 1025.88 1025.92 1025.96 1026.00 1026.04 1026.08 1026.16
1016.08 1016.32 1016.56 1016.76 1016.96 1017.20 1017.44 1017.68 1017.84 1017.92 1018.04 1018.16 1018.28 1018.44 1018.60 1018.80 1019.00 1019.16 1019.32 1019.48 1019.60 1019.76 1019.96 1020.16 1020.32 1020.52 1020.68 1020.84 1021.00 1021.20 1021.36 1021.48 1021.64 1021.76 1021.88 1022.00 1022.16 1022.28 1022.44 1022.56 1022.72 1022.96 1023.16 1023.32 1023.44 1023.60 1023.76 1023.92 1024.04 1024.16 1024.28 1024.48 1024.64 1024.80 1024.96 1025.08 1025.32 1025.48 1025.64 1025.80 1025.88 1026.00 1026.00 1026.04 1026.04 1026.12 1026.16 1026.20 1026.24
1016.00 1016.24 1016.44 1016.68 1016.88 1017.16 1017.44 1017.68 1017.88 1018.00 1018.08 1018.20 1018.32 1018.44 1018.60 1018.84 1019.00 1019.24 1019.40 1019.56 1019.64 1019.80 1020.00 1020.16 1020.40 1020.56 1020.72 1020.84 1021.00 1021.20 1021.44 1021.60 1021.72 1021.88 1021.96 1022.08 1022.20 1022.36 1022.48 1022.64 1022.80 1023.00 1023.20 1023.40 1023.52 1023.68 1023.84 1024.00 1024.16 1024.28 1024.40 1024.56 1024.72 1024.88 1025.00 1025.16 1025.32 1025.52 1025.72 1025.88 1025.96 1026.04 1026.16 1026.16 1026.16 1026.20 1026.24 1026.32 1026.40
1015.88 1016.12 1016.32 1016.56 1016.80 1017.08 1017.36 1017.60 1017.84 1018.00 1018.08 1018.20 1018.32 1018.48 1018.64 1018.84 1019.04 1019.20 1019.40 1019.56 1019.68 1019.84 1020.04 1020.20 1020.40 1020.60 1020.76 1020.88 1021.04 1021.24 1021.44 1021.64 1021.84 1022.00 1022.12 1022.16 1022.28 1022.44 1022.60 1022.72 1022.88 1023.00 1023.20 1023.36 1023.48 1023.60 1023.76 1024.00 1024.20 1024.36 1024.48 1024.60 1024.76 1024.92 1025.08 1025.16 1025.36 1025.52 1025.68 1025.84 1026.00 1026.12 1026.20 1026.28 1026.28 1026.28 1026.36 1026.44 1026.48
1015.72 1016.00 1016.24 1016.44 1016.72 1017.00 1017.32 1017.56 1017.76 1017.96 1018.08 1018.20 1018.28 1018.48 1018.68 1018.88 1019.04 1019.20 1019.36 1019.56 1019.72 1019.88 1020.04 1020.28 1020.44 1020.68 1020.84 1021.00 1021.16 1021.28 1021.44 1021.60 1021.76 1022.00 1022.16 1022.28 1022.36 1022.48 1022.60 1022.76 1022.96 1023.08 1023.20 1023.32 1023.40 1023.48 1023.64 1023.84 1024.08 1024.28 1024.48 1024.64 1024.84 1025.00 1025.16 1025.28 1025.36 1025.52 1025.64 1025.80 1025.96 1026.12 1026.28 1026.36 1026.44 1026.44 1026.52 1026.56 1026.60
1015.60 1015.84 1016.08 1016.32 1016.60 1016.92 1017.20 1017.44 1017.68 1017.88 1018.04 1018.20 1018.32 1018.48 1018.64 1018.84 1019.00 1019.16 1019.36 1019.56 1019.72 1019.88 1020.04 1020.28 1020.48 1020.68 1020.88 1021.04 1021.16 1021.32 1021.48 1021.60 1021.72 1021.88 1022.08 1022.28 1022.44 1022.56 1022.68 1022.84 1022.96 1023.12 1023.20 1023.24 1023.32 1023.44 1023.60 1023.80 1024.00 1024.20 1024.44 1024.64 1024.84 1025.00 1025.24 1025.36 1025.44 1025.56 1025.68 1025.80 1025.92 1026.08 1026.28 1026.44 1026.52 1026.60 1026.60 1026.60 1026.64
1015.44 1015.72 1015.96 1016.20 1016.48 1016.80 1017.08 1017.32 1017.60 1017.84 1018.00 1018.16 1018.32 1018.48 1018.64 1018.80 1019.00 1019.16 1019.36 1019.56 1019.72 1019.88 1020.08 1020.28 1020.48 1020.64 1020.84 1021.00 1021.16 1021.32 1021.48 1021.64 1021.72 1021.88 1022.00 1022.16 1022.36 1022.56 1022.72 1022.84 1022.96 1023.04 1023.08 1023.12 1023.20 1023.40 1023.60 1023.76 1023.96 1024.20 1024.44 1024.64 1024.80 1025.00 1025.20 1025.44 1025.56 1025.64 1025.72 1025.88 1025.96 1026.08 1026.24 1026.44 1026.56 1026.60 1026.68 1026.72 1026.72
1015.32 1015.56 1015.80 1016.08 1016.36 1016.64 1016.96 1017.24 1017.48 1017.72 1017.92 1018.16 1018.28 1018.44 1018.60 1018.76 1018.96 1019.16 1019.36 1019.56 1019.72 1019.92 1020.12 1020.32 1020.44 1020.60 1020.80 1021.04 1021.16 1021.32 1021.44 1021.60 1021.72 1021.88 1022.00 1022.12 1022.28 1022.44 1022.64 1022.80 1022.88 1022.96 1022.96 1023.00 1023.16 1023.32 1023.52 1023.72 1023.96 1024.16 1024.40 1024.64 1024.84 1025.00 1025.16 1025.40 1025.56 1025.68 1025.80 1025.96 1026.04 1026.16 1026.28 1026.48 1026.60 1026.68 1026.72 1026.80 1026.80
1015.12 1015.40 1015.64 1015.92 1016.20 1016.52 1016.84 1017.12 1017.32 1017.60 1017.84 1018.08 1018.24 1018.44 1018.60 1018.80 1018.96 1019.16 1019.32 1019.52 1019.68 1019.88 1020.08 1020.28 1020.44 1020.60 1020.84 1021.04 1021.16 1021.32 1021.44 1021.60 1021.72 1021.88 1022.00 1022.16 1022.28 1022.44 1022.60 1022.72 1022.80 1022.80 1022.80 1022.88 1023.08 1023.32 1023.52 1023.72 1023.92 1024.16 1024.36 1024.60 1024.84 1025.00 1025.20 1025.40 1025.56 1025.72 1025.88 1026.00 1026.12 1026.28 1026.40 1026.60 1026.68 1026.72 1026.80 1026.88 1026.88
1015.00 1015.24 1015.48 1015.72 1016.04 1016.36 1016.68 1016.96 1017.16 1017.44 1017.72 1018.00 1018.20 1018.40 1018.60 1018.76 1018.96 1019.12 1019.28 1019.44 1019.60 1019.76 1019.92 1020.16 1020.36 1020.60 1020.84 1021.00 1021.16 1021.32 1021.44 1021.60 1021.72 1021.84 1022.00 1022.16 1022.28 1022.44 1022.56 1022.64 1022.72 1022.72 1022.72 1022.84 1023.04 1023.28 1023.48 1023.72 1023.88 1024.16 1024.36 1024.60 1024.84 1025.04 1025.28 1025.44 1025.60 1025.76 1025.96 1026.12 1026.24 1026.36 1026.48 1026.64 1026.72 1026.80 1026.88 1026.92 1026.92
1014.88 1015.08 1015.32 1015.56 1015.88 1016.16 1016.48 1016.76 1017.04 1017.32 1017.64 1017.92 1018.16 1018.36 1018.56 1018.72 1018.88 1019.04 1019.16 1019.32 1019.48 1019.64 1019.88 1020.12 1020.32 1020.60 1020.80 1020.96 1021.12 1021.28 1021.44 1021.60 1021.72 1021.84 1021.96 1022.08 1022.20 1022.36 1022.48 1022.60 1022.60 1022.64 1022.68 1022.80 1023.00 1023.24 1023.44 1023.68 1023.88 1024.16 1024.36 1024.64 1024.88 1025.16 1025.32 1025.48 1025.64 1025.84 1026.00 1026.20 1026.32 1026.44 1026.56 1026.68 1026.76 1026.84 1026.88 1026.96 1027.00
1014.68 1014.92 1015.16 1015.40 1015.72 1016.00 1016.28 1016.60 1016.92 1017.24 1017.52 1017.80 1018.04 1018.28 1018.44 1018.64 1018.80 1018.96 1019.12 1019.28 1019.44 1019.64 1019.88 1020.16 1020.36 1020.60 1020.80 1021.00 1021.16 1021.24 1021.36 1021.56 1021.68 1021.76 1021.88 1022.00 1022.16 1022.32 1022.48 1022.56 1022.60 1022.60 1022.64 1022.76 1022.96 1023.16 1023.40 1023.64 1023.88 1024.12 1024.36 1024.64 1024.92 1025.20 1025.44 1025.60 1025.72 1025.92 1026.12 1026.28 1026.40 1026.48 1026.60 1026.72 1026.80 1026.88 1027.00 1027.00 1027.08
1014.48 1014.76 1015.00 1015.24 1015.52 1015.80 1016.12 1016.44 1016.76 1017.08 1017.40 1017.68 1017.92 1018.16 1018.40 1018.60 1018.76 1018.96 1019.12 1019.24 1019.40 1019.60 1019.88 1020.08 1020.28 1020.52 1020.72 1020.96 1021.12 1021.24 1021.40 1021.48 1021.60 1021.72 1021.84 1021.96 1022.16 1022.28 1022.44 1022.52 1022.56 1022.56 1022.60 1022.72 1022.92 1023.16 1023.36 1023.60 1023.88 1024.12 1024.36 1024.64 1025.00 1025.32 1025.52 1025.64 1025.84 1026.00 1026.20 1026.36 1026.48 1026.60 1026.68 1026.76 1026.88 1026.96 1027.04 1027.12 1027.16
1014.28 1014.60 1014.84 1015.04 1015.32 1015.60 1015.92 1016.24 1016.56 1016.88 1017.24 1017.56 1017.80 1018.04 1018.28 1018.52 1018.72 1018.92 1019.04 1019.16 1019.32 1019.56 1019.76 1019.96 1020.16 1020.32 1020.52 1020.72 1020.92 1021.12 1021.32 1021.40 1021.56 1021.72 1021.88 1022.00 1022.12 1022.24 1022.40 1022.48 1022.52 1022.44 1022.48 1022.64 1022.88 1023.16 1023.36 1023.60 1023.88 1024.12 1024.40 1024.72 1025.12 1025.40 1025.60 1025.72 1025.92 1026.12 1026.28 1026.48 1026.60 1026.72 1026.76 1026.84 1026.92 1027.00 1027.12 1027.16 1027.24
1014.08 1014.36 1014.60 1014.84 1015.08 1015.36 1015.72 1016.00 1016.36 1016.72 1017.04 1017.36 1017.64 1017.92 1018.16 1018.44 1018.60 1018.76 1018.92 1019.04 1019.28 1019.52 1019.76 1020.00 1020.16 1020.28 1020.48 1020.72 1020.88 1021.00 1021.20 1021.40 1021.60 1021.72 1021.88 1022.00 1022.12 1022.20 1022.32 1022.44 1022.48 1022.44 1022.44 1022.60 1022.88 1023.08 1023.32 1023.60 1023.88 1024.16 1024.44 1024.88 1025.24 1025.48 1025.64 1025.84 1026.00 1026.24 1026.40 1026.60 1026.72 1026.84 1026.88 1027.00 1027.08 1027.16 1027.20 1027.28 1027.32
1013.84 1014.12 1014.36 1014.64 1014.88 1015.16 1015.44 1015.76 1016.16 1016.48 1016.84 1017.16 1017.44 1017.72 1018.00 1018.28 1018.48 1018.64 1018.80 1018.96 1019.20 1019.52 1019.76 1020.00 1020.20 1020.40 1020.60 1020.76 1020.88 1021.00 1021.12 1021.32 1021.56 1021.72 1021.88 1021.96 1022.04 1022.16 1022.28 1022.40 1022.44 1022.44 1022.44 1022.60 1022.84 1023.04 1023.32 1023.56 1023.84 1024.16 1024.56 1024.96 1025.32 1025.52 1025.68 1025.88 1026.12 1026.32 1026.48 1026.60 1026.80 1026.92 1027.00 1027.12 1027.20 1027.32 1027.36 1027.40 1027.44
1013.60 1013.88 1014.12 1014.40 1014.64 1014.88 1015.16 1015.48 1015.88 1016.28 1016.60 1016.88 1017.24 1017.56 1017.84 1018.16 1018.40 1018.60 1018.76 1018.92 1019.16 1019.44 1019.72 1019.92 1020.16 1020.28 1020.44 1020.60 1020.76 1020.92 1021.08 1021.20 1021.44 1021.64 1021.84 1021.88 1022.00 1022.08 1022.24 1022.36 1022.44 1022.44 1022.44 1022.60 1022.80 1023.00 1023.28 1023.56 1023.84 1024.20 1024.60 1025.00 1025.32 1025.56 1025.72 1025.92 1026.16 1026.36 1026.56 1026.72 1026.88 1027.04 1027.16 1027.20 1027.32 1027.36 1027.44 1027.44 1027.48
1013.36 1013.60 1013.88 1014.16 1014.40 1014.64 1014.92 1015.24 1015.60 1016.00 1016.32 1016.68 1017.00 1017.36 1017.68 1017.96 1018.28 1018.52 1018.68 1018.80 1019.04 1019.32 1019.60 1019.84 1020.00 1020.16 1020.32 1020.48 1020.68 1020.88 1021.08 1021.20 1021.32 1021.52 1021.72 1021.88 1021.96 1022.00 1022.16 1022.28 1022.40 1022.40 1022.44 1022.60 1022.80 1023.00 1023.24 1023.56 1023.88 1024.20 1024.60 1025.00 1025.28 1025.52 1025.72 1026.00 1026.20 1026.44 1026.60 1026.84 1027.00 1027.16 1027.24 1027.32 1027.40 1027.44 1027.48 1027.44 1027.44
1013.16 1013.40 1013.64 1013.88 1014.16 1014.40 1014.72 1015.00 1015.32 1015.72 1016.08 1016.44 1016.88 1017.24 1017.56 1017.84 1018.12 1018.32 1018.52 1018.64 1018.88 1019.16 1019.44 1019.68 1019.92 1020.12 1020.28 1020.44 1020.64 1020.88 1021.12 1021.24 1021.32 1021.40 1021.60 1021.80 1021.88 1021.96 1022.04 1022.20 1022.32 1022.44 1022.44 1022.56 1022.76 1023.00 1023.28 1023.56 1023.88 1024.20 1024.56 1024.88 1025.20 1025.44 1025.68 1025.92 1026.20 1026.44 1026.64 1026.88 1027.04 1027.20 1027.32 1027.44 1027.44 1027.48 1027.52 1027.44 1027.32
1012.96 1013.20 1013.44 1013.68 1013.92 1014.16 1014.44 1014.72 1015.08 1015.44 1015.88 1016.28 1016.64 1017.00 1017.36 1017.64 1017.92 1018.16 1018.40 1018.60 1018.88 1019.16 1019.36 1019.60 1019.88 1020.04 1020.20 1020.36 1020.60 1020.88 1021.12 1021.28 1021.32 1021.40 1021.52 1021.68 1021.80 1021.88 1021.96 1022.16 1022.32 1022.44 1022.44 1022.56 1022.72 1023.00 1023.24 1023.52 1023.88 1024.16 1024.56 1024.88 1025.12 1025.36 1025.60 1025.88 1026.16 1026.44 1026.72 1026.88 1027.00 1027.24 1027.44 1027.52 1027.56 1027.60 1027.60 1027.52 1027.40
1012.76 1013.00 1013.28 1013.52 1013.72 1014.00 1014.20 1014.48 1014.88 1015.28 1015.68 1016.04 1016.44 1016.84 1017.16 1017.44 1017.76 1018.04 1018.28 1018.60 1018.92 1019.16 1019.32 1019.60 1019.84 1020.00 1020.16 1020.28 1020.52 1020.80 1021.04 1021.24 1021.36 1021.44 1021.48 1021.60 1021.72 1021.76 1021.88 1022.12 1022.28 1022.40 1022.44 1022.56 1022.72 1023.00 1023.24 1023.52 1023.84 1024.16 1024.52 1024.84 1025.08 1025.32 1025.56 1025.80 1026.12 1026.44 1026.72 1026.88 1027.00 1027.16 1027.40 1027.56 1027.60 1027.60 1027.60 1027.64 1027.60
Wind_Speed
8 7 7 6 6 5 4 4 5 5 4 3 3 3 3 3 3 3 3 3 3 3 3 3 3 3 4 5 6 7 8 8 9 9 9 9 8 7 7 6 6 6 6 6 5 5 5 5 4 4 3 3 3 3 3 3 4 5 5 5 4 4 5 6 5 5 5 4 3
8 8 8 8 6 5 5 5 5 5 4 3 3 3 3 3 3 3 3 3 3 3 3 3 4 4 5 6 6 7 8 9 9 10 9 9 8 7 6 6 6 6 6 6 5 5 4 4 4 4 3 3 4 4 4 3 4 5 6 6 4 4 4 5 5 4 4 4 3
8 8 8 7 6 6 6 6 6 6 5 4 3 3 3 3 3 3 3 3 3 3 3 3 4 4 5 6 6 7 8 9 9 9 9 8 8 7 6 6 6 6 6 5 5 5 5 5 4 4 4 4 4 4 4 3 4 5 6 5 4 3 4 4 3 3 3 3 3
9 9 8 8 8 7 7 6 7 7 6 5 4 4 4 3 3 3 3 3 3 3 3 4 4 4 5 5 6 7 8 9 9 9 8 8 7 7 7 6 6 6 6 5 5 6 5 5 4 4 4 4 5 4 4 3 4 4 4 3 3 4 4 3 3 3 3 3 3
9 8 8 7 8 7 7 7 8 8 6 5 4 4 4 3 3 3 3 4 4 4 4 4 4 4 4 5 7 8 8 9 9 9 8 8 7 7 7 7 7 6 6 6 6 6 6 6 4 4 4 4 4 3 3 4 5 5 4 3 3 3 4 3 3 3 3 3 3
8 8 7 7 7 7 7 7 8 8 7 5 5 5 5 4 4 4 4 4 4 5 6 6 5 5 5 6 7 8 8 8 8 8 8 8 7 7 7 7 7 6 6 6 6 6 6 6 4 4 4 4 4 4 4 5 6 6 5 4 4 3 3 3 3 3 4 4 4
8 8 8 8 8 8 7 8 8 7 7 6 7 7 6 5 5 5 5 5 5 6 6 6 5 5 6 6 7 7 7 7 7 7 8 7 7 7 8 7 7 6 6 6 6 6 6 5 5 4 4 4 4 4 4 5 6 6 6 5 4 3 3 3 3 3 4 6 6
8 9 9 9 9 9 8 9 8 8 7 6 7 7 7 7 7 7 6 6 6 5 5 5 5 6 6 7 7 7 7 7 7 7 7 7 8 8 8 8 7 7 6 6 6 6 5 4 4 4 4 4 3 4 5 6 7 8 7 6 4 4 4 3 3 3 4 6 6
8 9 9 9 9 8 9 9 9 8 8 7 7 7 8 8 8 7 7 6 6 6 5 5 5 6 7 7 7 7 7 7 7 7 7 7 8 8 8 8 7 7 6 5 6 6 6 5 4 4 4 4 4 4 5 7 8 8 7 6 4 4 4 4 3 4 4 6 7
8 9 9 9 9 9 9 9 8 8 8 8 8 8 8 9 8 7 7 6 6 6 5 5 6 7 7 7 7 7 7 7 7 7 7 7 8 8 8 7 7 7 6 5 6 6 6 5 5 5 4 4 5 5 6 7 8 8 7 5 5 5 5 4 4 4 5 6 7
9 9 9 9 9 9 9 9 8 8 8 8 8 8 9 9 8 7 6 6 6 6 6 6 7 7 7 7 7 7 7 6 7 7 8 8 8 8 8 7 7 7 7 5 5 5 5 5 6 6 5 4 5 5 6 7 8 8 7 4 5 5 5 5 5 5 5 6 7
9 9 9 9 9 10 10 9 8 8 8 8 8 8 8 8 8 7 7 7 7 7 6 6 7 8 8 7 6 6 6 6 7 7 8 8 8 8 8 8 8 7 7 6 5 5 5 6 7 7 6 5 5 5 6 7 8 8 7 5 6 6 6 5 5 4 4 6 7
9 9 9 9 9 10 9 9 8 7 8 8 8 8 8 7 8 8 8 8 7 6 5 5 6 7 7 7 7 6 6 7 7 7 8 8 8 8 8 8 8 7 7 5 5 5 6 7 8 8 7 6 5 5 5 7 8 8 8 7 7 6 6 5 4 4 5 6 7
9 9 9 9 10 9 9 8 7 7 8 8 8 8 7 7 8 8 8 8 7 7 6 5 5 6 6 7 7 7 7 7 7 8 8 8 8 8 8 8 8 7 6 5 5 6 7 7 8 8 8 7 6 5 5 6 7 8 8 8 7 7 6 5 4 5 6 7 7
9 9 9 9 9 9 9 8 7 7 8 8 8 7 7 7 8 8 7 7 7 7 6 6 5 6 6 7 8 8 8 8 8 8 8 8 8 8 8 8 8 7 7 6 6 6 7 8 8 8 8 8 7 6 6 6 7 7 7 7 7 7 6 5 5 5 6 8 7
10 9 9 9 9 9 8 8 7 7 7 8 8 8 7 7 7 7 8 8 7 6 6 6 6 6 6 7 7 8 8 8 9 9 9 8 8 8 8 8 8 8 8 7 7 6 6 7 7 8 9 9 8 7 6 6 7 7 7 7 7 7 6 5 5 5 6 7 7
10 10 10 10 10 9 9 8 7 7 7 8 8 8 8 7 7 7 8 8 7 7 7 7 7 7 7 6 7 7 8 8 8 8 9 9 9 9 8 8 8 8 8 8 8 7 6 6 6 7 8 9 8 7 7 7 7 7 6 6 6 6 5 5 5 5 6 7 7
10 10 10 10 10 9 9 8 7 7 8 8 8 8 8 7 7 7 8 8 7 8 8 8 7 7 7 7 6 6 7 8 8 8 8 8 9 9 9 8 8 8 8 9 9 8 7 7 6 7 8 8 8 7 7 7 7 7 6 6 6 5 5 4 4 5 6 7 7
11 11 11 11 10 10 9 9 8 8 8 8 8 8 8 8 8 8 8 7 8 9 9 9 8 7 8 8 7 7 7 7 8 8 8 8 8 9 9 8 8 8 8 9 9 8 8 7 7 7 8 8 7 7 7 7 7 7 6 6 6 5 5 4 4 4 5 7 6
11 11 11 11 11 10 9 9 8 8 8 8 9 9 9 9 9 9 9 8 8 9 9 9 9 8 7 8 8 7 6 6 8 8 8 8 8 9 9 9 8 8 8 9 8 8 8 8 8 8 8 9 8 8 8 7 7 7 6 6 6 5 5 4 4 5 5 6 6
12 11 11 11 11 10 9 8 8 8 8 8 9 9 9 9 9 9 9 9 9 9 9 10 9 9 8 8 8 7 6 6 7 8 8 8 9 9 9 9 9 8 8 8 8 8 8 8 8 8 9 9 9 9 8 8 7 7 7 6 5 5 5 5 5 5 6 6 6
12 11 11 11 11 10 9 9 8 8 9 9 9 9 9 9 9 9 8 8 9 9 9 9 9 9 9 9 9 8 7 6 7 7 8 8 8 8 8 9 9 9 9 8 8 8 8 8 8 8 9 9 9 8 8 8 8 8 7 7 6 5 5 5 5 6 6 6 6
12 11 11 11 11 11 10 9 9 9 9 9 9 9 9 9 9 8 8 8 9 9 9 8 8 8 9 9 9 9 8 7 7 7 7 7 8 8 8 8 9 9 9 8 8 9 9 8 8 8 8 8 8 8 8 8 8 8 8 7 7 6 6 5 6 6 6 6 6
12 12 11 10 11 11 11 10 10 9 9 9 9 9 9 9 9 9 9 9 9 9 8 8 7 8 8 8 9 9 9 9 8 7 7 7 8 8 8 8 8 8 8 7 9 9 9 8 8 7 7 8 8 8 8 8 8 8 8 8 7 7 6 6 6 6 6 6 5
13 12 12 11 11 11 11 11 10 10 9 9 10 9 9 9 9 9 9 9 9 9 9 8 8 7 7 8 8 9 9 9 10 9 8 7 8 8 8 7 7 7 7 8 12 14 13 11 9 8 7 7 7 7 7 7 7 8 8 8 8 7 7 6 6 6 5 5 4
13 13 13 12 12 12 12 12 11 10 10 9 10 10 10 9 9 9 9 9 9 9 9 9 8 8 8 7 8 8 9 9 9 10 10 9 8 8 7 7 6 6 7 11 15 17 16 15 13 11 9 7 7 7 7 6 6 7 7 7 8 8 8 7 6 5 4 3 2
14 14 13 13 12 12 12 12 12 11 11 10 10 10 10 10 9 9 10 9 9 9 9 8 8 8 8 7 8 9 8 8 9 9 10 10 10 9 8 7 6 5 8 14 17 18 18 17 16 14 11 8 7 7 7 6 6 7 7 7 7 8 8 8 6 5 3 2 2
14 14 14 13 13 13 13 13 13 12 12 11 10 10 10 10 10 10 10 10 9 9 8 7 7 7 7 6 8 9 9 9 8 9 9 10 10 9 8 7 6 7 10 16 18 19 18 18 18 16 13 10 7 7 7 7 6 6 6 6 6 7 7 6 5 4 3 3 3
15 15 14 14 14 13 13 13 13 13 12 11 11 10 10 10 10 10 10 10 10 9 8 6 6 6 6 6 7 8 8 9 8 8 8 9 9 9 8 8 7 9 14 19 19 19 19 19 18 17 15 12 8 6 6 6 6 5 5 5 6 6 6 5 4 4 3 4 4
16 15 15 15 14 14 13 13 14 13 13 11 11 11 11 11 11 11 11 11 10 9 8 7 6 6 7 8 8 8 8 8 8 8 9 10 9 9 8 8 7 10 14 20 20 19 19 19 19 18 16 14 9 7 5 5 5 5 5 5 5 5 5 5 5 4 4 4 5
16 16 15 15 15 14 14 14 14 14 13 12 11 11 11 11 11 11 11 11 9 9 8 7 8 8 8 7 7 8 8 8 8 8 9 10 10 10 8 8 8 10 14 20 20 20 20 19 19 18 17 15 10 7 6 6 6 5 5 5 5 5 5 5 5 5 5 5 6
17 16 15 15 15 15 14 14 14 14 14 13 13 12 12 11 11 10 10 10 9 9 8 8 8 8 8 7 7 8 8 8 9 9 9 10 10 9 8 8 7 10 14 20 20 20 20 19 19 18 17 15 11 8 6 6 6 6 5 6 6 5 5 5 5 5 5 6 6
18 17 16 15 15 15 15 15 15 15 14 14 14 13 12 11 10 9 9 9 10 9 9 9 10 10 9 9 8 8 9 9 9 10 10 10 10 9 8 7 7 10 15 20 20 20 20 19 19 19 18 16 11 8 7 6 5 5 5 5 5 5 5 5 5 5 5 5 6
18 18 17 15 15 15 15 15 15 15 15 15 14 14 13 11 11 10 10 9 9 8 8 9 9 9 9 9 9 9 9 9 9 9 10 10 10 9 8 6 6 11 17 20 20 20 20 20 19 19 18 16 10 8 7 7 6 6 6 5 5 4 4 5 5 5 5 6 6
19 19 17 15 16 16 16 16 16 16 16 16 15 14 14 12 12 11 10 10 9 8 7 7 7 7 7 7 8 9 9 10 9 9 9 9 10 10 9 7 6 12 18 20 20 20 20 20 20 19 17 14 9 7 7 7 7 6 6 6 5 5 5 5 4 4 5 6 7
20 19 18 16 16 16 17 17 17 17 17 16 16 15 14 13 11 11 11 11 10 9 8 7 7 7 7 7 7 8 9 10 9 9 9 10 10 10 9 8 7 12 18 20 20 20 20 20 20 19 16 11 7 6 6 7 6 6 7 7 6 5 5 4 4 4 4 5 6
20 20 19 17 16 17 18 18 18 17 17 17 16 16 15 14 12 11 10 11 10 9 9 9 9 9 9 8 7 7 8 10 10 10 10 10 11 10 10 8 8 12 17 20 20 20 20 21 20 18 15 10 7 6 6 6 5 6 6 7 6 5 4 4 3 4 4 5 7
20 20 20 18 17 17 18 19 18 18 18 17 16 15 15 14 13 11 11 11 10 10 10 9 9 9 9 9 9 8 9 10 11 12 11 11 11 10 10 9 8 10 14 19 20 21 21 21 20 18 14 9 8 7 6 6 5 5 6 6 5 4 3 3 3 3 4 6 9
20 20 20 19 18 18 19 19 19 19 18 17 16 15 15 14 13 12 11 11 9 9 10 10 9 9 9 9 9 8 8 9 11 12 12 11 11 11 11 10 8 9 13 19 20 21 21 21 20 19 16 11 8 7 6 6 6 6 5 5 5 4 3 2 2 2 4 6 12
21 21 21 20 19 18 19 20 20 19 17 17 16 15 15 14 13 12 11 10 9 9 9 10 10 9 10 10 10 9 8 8 9 10 11 11 12 13 14 11 9 9 12 18 20 21 21 21 20 19 16 10 8 7 6 6 6 6 6 5 5 4 3 2 2 2 2 4 9
20 20 21 20 19 18 18 20 20 19 17 16 16 15 14 14 14 13 12 10 9 9 9 9 10 10 10 10 10 10 9 8 8 9 10 12 12 14 14 11 9 10 12 16 19 21 21 21 21 19 16 10 8 7 6 6 7 7 6 5 5 5 4 3 2 2 2 2 3
Wind_Direction
151 151 154 157 154 146 135 133 137 137 135 133 133 127 118 108 108 108 107 110 112 113 112 108 103 100 98 101 106 110 113 115 117 119 119 118 117 115 112 108 105 102 100 97 94 89 84 81 80 77 74 72 71 68 67 73 90 93 92 91 91 89 86 84 84 83 84 84 88
152 152 154 157 152 143 135 136 140 140 136 126 119 112 109 110 114 116 117 116 117 116 113 108 104 104 107 110 114 117 119 120 121 121 120 119 116 113 109 105 103 101 99 97 93 89 86 84 84 83 79 75 75 73 71 72 86 90 89 86 88 88 85 83 82 85 88 91 90
152 152 154 157 153 148 143 143 146 145 141 128 112 107 109 115 118 120 122 120 116 113 110 109 107 109 111 115 117 120 122 123 124 123 122 120 116 112 108 105 100 97 93 91 89 87 86 85 86 87 87 84 83 83 81 77 84 87 87 83 84 85 85 86 85 85 85 83 80
152 154 156 158 155 152 150 148 149 147 142 127 116 112 114 119 121 123 123 122 115 111 109 111 111 112 114 116 119 121 123 125 124 123 121 119 115 110 107 103 99 95 91 89 89 87 86 84 85 85 87 88 87 88 88 87 83 82 82 77 79 82 85 87 84 83 82 78 74
155 156 157 157 154 152 150 148 148 146 140 127 122 122 123 125 128 128 128 124 117 111 108 108 111 114 117 120 122 123 124 124 124 122 119 116 112 109 104 101 100 98 96 93 93 92 91 88 86 84 83 83 83 85 88 91 87 84 79 70 70 77 83 84 81 80 79 76 69
157 156 153 152 151 150 148 147 146 142 137 129 131 133 137 141 141 138 133 125 116 112 110 112 115 118 122 122 123 124 125 124 123 121 118 116 113 109 105 102 102 101 99 97 96 95 95 94 92 88 84 83 80 79 84 91 91 88 82 72 64 67 74 77 77 77 78 78 73
156 153 151 152 153 152 150 147 143 139 135 133 136 141 146 149 145 140 132 124 120 119 120 121 123 126 129 128 126 126 125 123 120 118 116 115 113 111 109 108 105 103 102 101 99 96 95 95 96 93 90 88 84 76 75 85 91 90 85 76 64 60 62 66 70 78 83 85 83
154 152 153 154 156 153 150 146 144 142 141 141 143 146 148 147 143 137 131 126 127 128 127 126 130 133 134 133 130 128 126 124 121 117 115 114 113 112 111 109 107 105 103 101 98 96 93 90 91 91 91 90 86 79 77 83 87 88 86 81 69 58 54 57 63 76 86 90 86
154 154 155 157 156 153 149 146 146 145 145 144 145 147 147 147 143 138 135 133 131 128 126 127 131 132 132 132 133 132 129 126 123 120 118 115 115 114 113 111 109 106 102 98 95 93 90 87 83 83 84 88 89 86 85 86 89 89 88 86 78 67 57 55 59 70 81 87 83
156 157 158 159 156 152 148 145 144 142 140 140 143 146 148 150 146 142 137 133 127 124 126 131 132 132 132 132 134 134 132 129 126 122 120 119 118 118 117 115 112 109 105 100 96 93 91 90 86 82 82 86 90 90 88 89 91 90 88 87 84 76 65 52 54 62 72 79 78
156 159 161 161 156 151 148 146 143 140 137 139 143 148 151 151 147 140 133 126 124 127 132 136 135 134 134 134 135 134 133 130 126 124 122 120 118 117 117 116 113 111 108 105 102 100 98 99 96 91 88 87 90 91 91 91 92 91 88 85 84 79 72 56 53 58 68 76 76
157 161 163 161 155 152 150 149 145 141 140 142 146 149 151 149 143 136 130 125 128 132 136 138 137 137 136 136 135 133 130 127 125 123 120 118 117 115 114 113 111 110 109 109 108 107 108 108 107 102 97 91 91 94 96 97 97 95 92 86 83 80 76 65 58 59 67 74 75
159 163 164 160 155 153 151 150 146 144 143 146 149 150 148 144 139 135 132 131 133 134 136 137 136 136 136 136 134 132 130 128 125 122 120 119 118 116 114 113 111 110 108 108 110 112 114 115 114 110 105 98 95 97 101 103 104 103 101 95 89 85 82 76 70 70 73 74 78
161 165 165 160 157 155 153 151 149 147 147 148 150 148 145 142 140 138 136 135 135 135 135 134 133 133 134 135 134 132 130 127 124 121 120 120 119 118 117 115 113 112 110 108 109 115 118 120 119 115 112 106 102 99 101 104 107 109 109 107 102 98 94 90 87 86 86 85 83
163 165 164 160 159 158 156 154 151 150 150 149 149 147 144 142 142 140 137 135 135 135 133 130 128 128 129 131 132 131 129 126 123 121 120 119 119 118 118 117 115 114 112 110 110 114 119 122 122 120 116 113 109 104 100 101 105 108 111 113 113 111 108 105 101 99 99 98 94
164 165 162 161 161 161 159 157 154 153 151 150 149 146 144 143 141 139 138 137 135 133 130 129 128 127 127 129 130 129 127 126 125 124 123 123 122 121 120 119 119 118 116 114 112 111 114 119 121 121 119 116 113 108 104 101 101 103 105 109 112 113 114 114 111 108 106 105 103
165 164 163 163 163 163 161 159 156 154 153 150 148 147 145 142 141 142 142 141 138 134 132 131 131 130 130 131 131 130 128 128 128 128 128 129 128 126 125 124 124 123 121 119 117 113 111 111 115 116 116 115 113 110 107 104 102 102 102 103 105 108 111 113 113 111 110 106 108
166 165 164 164 164 163 161 158 156 154 152 150 148 147 145 143 143 144 144 143 139 137 135 133 134 134 134 136 136 135 133 132 133 133 132 132 131 129 128 127 127 126 124 123 121 120 117 113 112 111 111 110 108 107 106 104 103 102 101 100 98 99 100 103 106 109 110 109 111
167 166 166 165 164 162 160 158 155 153 152 150 148 146 145 145 145 144 144 143 141 138 137 135 136 136 137 138 138 138 137 134 134 133 132 131 129 128 128 127 127 126 125 124 123 122 120 118 115 112 110 108 106 104 103 103 102 100 98 96 94 93 93 93 96 101 106 110 113
168 167 166 165 163 161 159 157 155 153 152 150 147 146 145 146 146 145 145 145 143 139 137 137 138 139 138 138 137 137 137 135 133 132 131 130 129 129 129 129 127 125 125 124 123 122 120 119 117 115 114 112 111 108 106 104 101 98 95 93 91 91 92 93 94 97 99 104 108
169 167 166 163 161 160 158 157 155 153 151 150 148 147 146 147 147 147 146 145 142 140 139 139 141 141 141 139 137 136 136 134 132 133 132 131 131 131 131 129 127 125 124 123 122 122 120 120 119 119 118 118 117 116 114 110 105 100 95 92 89 89 90 93 96 96 98 100 103
168 166 165 163 161 159 156 155 154 153 152 151 149 147 147 148 148 147 144 141 140 140 140 141 142 143 143 141 138 136 134 131 131 132 132 132 132 132 131 129 127 126 125 124 123 122 121 120 121 121 122 121 121 120 119 116 111 106 101 96 91 88 88 89 93 95 96 98 101
166 165 163 162 159 157 155 154 155 155 153 151 150 149 148 149 147 144 141 141 141 141 141 141 142 143 142 140 136 133 130 127 126 126 127 128 128 128 129 129 128 129 129 130 128 126 123 121 122 122 123 122 122 121 121 119 117 113 108 103 97 92 88 88 90 92 94 96 100
164 164 163 163 159 156 155 156 158 157 156 153 152 151 150 148 146 143 142 142 142 141 141 140 140 139 136 134 133 132 131 129 127 125 123 124 126 128 129 128 130 131 134 136 138 136 133 129 127 126 125 123 123 122 122 122 121 118 115 110 104 98 93 90 91 93 96 100 106
163 163 163 162 159 157 157 159 161 161 159 156 154 152 150 149 147 146 145 143 142 141 139 137 135 134 133 132 133 133 134 134 132 130 127 125 126 127 128 129 130 133 137 141 144 142 139 137 135 133 129 125 122 120 119 119 120 120 119 116 113 108 101 95 93 94 100 107 116
162 162 163 162 159 159 160 163 164 163 160 156 154 153 152 151 150 148 146 145 143 141 139 136 136 137 136 134 135 135 135 136 136 135 134 132 130 128 128 130 134 138 144 148 147 144 141 138 137 134 131 128 125 122 119 116 117 117 118 118 117 115 112 108 104 101 99 95 96
163 163 163 161 160 161 163 165 165 163 161 158 156 155 155 154 152 150 148 146 144 141 139 138 140 140 140 136 137 138 139 140 139 139 138 137 135 133 133 135 139 145 150 151 148 145 142 139 137 135 132 128 127 126 124 121 117 116 116 117 117 118 118 118 116 111 99 67 41
164 163 162 160 161 162 164 165 166 165 163 161 159 157 155 154 153 152 150 148 145 143 141 142 143 142 141 140 142 143 142 142 141 141 140 138 137 137 138 141 147 152 153 151 148 145 143 141 139 137 134 129 126 124 124 123 120 118 117 117 116 116 115 116 114 107 94 75 58
165 163 161 161 162 163 164 166 167 166 164 161 159 157 155 155 155 155 153 151 149 149 149 149 146 143 142 145 145 144 142 142 143 141 139 137 136 138 142 146 151 154 153 151 148 147 145 143 141 138 135 131 126 123 124 123 122 120 118 118 116 113 110 106 99 92 88 86 80
165 164 162 162 162 163 164 166 166 165 162 160 158 157 157 157 158 157 157 155 155 155 154 150 146 145 146 148 146 145 144 145 144 142 140 139 140 142 146 151 155 155 153 152 149 148 147 145 143 139 135 131 125 121 121 122 121 120 119 117 112 108 106 102 97 95 93 92 88
167 165 163 162 162 163 164 165 164 163 162 161 160 159 159 160 161 162 161 160 159 155 150 144 143 144 146 147 146 146 146 146 145 144 143 143 145 147 150 154 157 156 154 152 150 149 148 146 143 140 136 132 126 123 121 122 121 120 119 117 112 108 105 102 101 100 99 96 94
168 167 165 163 163 163 163 163 162 162 161 162 162 162 163 164 164 164 163 160 156 151 147 143 143 143 143 143 144 146 146 147 148 149 149 148 148 149 152 157 160 158 155 153 151 150 148 146 144 141 137 133 127 122 120 120 118 115 113 110 110 109 108 108 106 104 103 100 99
170 168 166 165 164 162 162 161 161 161 161 163 164 165 165 164 163 162 162 160 156 153 151 150 149 148 148 149 148 148 149 151 152 152 151 149 148 149 152 157 161 159 156 154 152 151 149 147 144 141 138 133 126 121 119 118 114 110 106 101 102 103 106 109 110 109 107 104 102
171 170 168 166 164 163 161 160 160 160 162 164 167 167 166 164 163 164 164 163 159 156 154 153 153 153 152 152 151 151 153 154 153 152 150 149 148 149 152 158 162 161 158 154 153 151 150 148 145 142 137 132 126 120 118 115 112 108 104 99 95 94 97 102 106 109 110 109 105
172 171 170 167 165 163 162 160 160 161 163 166 168 169 168 166 166 166 165 163 158 153 151 151 149 148 148 149 150 151 152 152 151 150 150 150 150 151 153 160 164 162 159 155 154 152 151 149 145 141 136 130 125 122 120 117 114 111 108 103 98 94 93 95 99 105 110 112 111
173 172 171 168 165 164 162 161 161 162 165 168 169 169 169 168 168 167 164 160 155 151 149 148 146 145 146 149 151 152 152 151 151 151 152 152 152 153 156 163 167 164 161 156 155 153 151 149 145 140 135 128 125 123 122 120 117 114 111 107 103 99 97 97 100 106 112 115 116
174 173 171 169 166 164 164 163 163 164 166 168 169 169 168 167 168 167 164 160 154 152 152 151 151 152 154 155 156 156 154 152 151 152 154 157 156 156 157 163 168 165 162 157 156 154 152 150 145 140 134 127 127 126 124 121 119 115 112 108 105 100 96 95 104 113 120 123 123
175 174 173 170 167 165 165 165 165 166 168 168 169 169 168 167 167 167 166 162 157 155 155 155 156 157 158 157 154 152 151 152 153 154 157 160 160 158 158 162 169 167 163 159 157 155 153 150 146 142 138 133 133 132 128 125 123 119 116 112 106 97 88 85 102 119 131 136 134
175 175 174 173 169 167 166 167 167 168 168 167 167 168 168 168 168 169 167 164 159 157 157 157 158 158 156 153 148 148 150 154 156 157 158 161 163 162 160 160 167 167 163 160 159 157 154 151 148 145 142 137 137 136 133 130 126 124 120 116 111 102 91 82 98 123 139 143 141
175 175 175 174 171 168 167 168 168 168 167 166 166 167 168 169 169 168 166 161 157 156 156 156 156 155 153 151 146 147 150 156 160 160 161 163 165 164 162 159 164 165 163 161 160 158 156 153 151 148 145 139 139 137 135 132 130 128 127 125 122 117 109 95 98 113 132 139 142
175 175 175 175 172 169 167 168 168 168 167 166 166 167 168 169 169 167 165 159 157 156 155 153 153 153 153 152 148 148 151 156 162 164 164 164 166 165 163 159 162 163 162 162 161 160 158 156 153 151 148 143 141 139 137 135 134 135 137 138 135 132 128 123 111 101 101 105 130